When you browse on this site, cookies collect data to enhance your experience and personalize the content and advertising you see.
Visit our Privacy Policy to learn more. By continuing to use the site, you agree to this use of cookies and data.
  • In Lithuania
  • List of Countries
  • For 7 days
  • Water Temperature
  • Weather Map
  • Weather Widgets
  • user-avatar
    Login

    Hourly Weather Kitzbuhel

    Today, 21 October, Monday

    Time Temperature Precipitation Wind Pressure Humidity
    00:00 +12°C° 0 mm 4 mps 677 mmHg 72%
    01:00 +12°C° 0 mm 4 mps 677 mmHg 72%
    02:00 +12°C° 0 mm 3 mps 677 mmHg 72%
    03:00 +12°C° 0 mm 3 mps 677 mmHg 72%
    04:00 +12°C° 0 mm 3 mps 677 mmHg 72%
    05:00 +12°C° 0 mm 3 mps 677 mmHg 73%
    06:00 +12°C° 0 mm 3 mps 678 mmHg 73%
    07:00 +12°C° 0 mm 3 mps 678 mmHg 74%
    08:00 +14°C° 0 mm 3 mps 679 mmHg 69%
    09:00 +17°C° 0 mm 2 mps 680 mmHg 65%
    10:00 +19°C° 0 mm 2 mps 680 mmHg 61%
    11:00 +19°C° 0 mm 2 mps 681 mmHg 61%
    12:00 +19°C° 0 mm 2 mps 681 mmHg 61%
    13:00 +20°C° 0 mm 2 mps 681 mmHg 60%
    14:00 +19°C° 0 mm 2 mps 681 mmHg 66%
    15:00 +19°C° 0 mm 1 mps 681 mmHg 72%
    16:00 +18°C° 0 mm 1 mps 680 mmHg 77%
    17:00 +16°C° 0 mm 1 mps 680 mmHg 82%
    18:00 +14°C° 0 mm 1 mps 680 mmHg 86%
    19:00 +12°C° 0 mm 1 mps 680 mmHg 91%
    20:00 +12°C° 0 mm 1 mps 681 mmHg 90%
    21:00 +12°C° 0 mm 1 mps 681 mmHg 90%
    22:00 +12°C° 0 mm 1 mps 681 mmHg 90%
    23:00 +12°C° 0 mm 1 mps 681 mmHg 89%

    Tomorrow, 22 October, Tuesday

    Time Temperature Precipitation Wind Pressure Humidity
    00:00 +11°C° 0 mm 1 mps 681 mmHg 89%
    01:00 +11°C° 0 mm 1 mps 681 mmHg 89%
    02:00 +11°C° 0 mm 1 mps 681 mmHg 90%
    03:00 +10°C° 0 mm 0 mps 681 mmHg 91%
    04:00 +9°C° 0 mm 0 mps 681 mmHg 93%
    05:00 +10°C° 0 mm 0 mps 681 mmHg 92%
    06:00 +10°C° 0 mm 0 mps 681 mmHg 91%
    07:00 +10°C° 0 mm 0 mps 681 mmHg 90%
    08:00 +12°C° 0 mm 0 mps 682 mmHg 82%
    09:00 +14°C° 0 mm 0 mps 682 mmHg 74%
    10:00 +16°C° 0 mm 0 mps 683 mmHg 67%
    11:00 +17°C° 0 mm 0 mps 683 mmHg 64%
    12:00 +20°C° 0 mm 1 mps 683 mmHg 61%
    13:00 +21°C° 0 mm 1 mps 683 mmHg 58%
    14:00 +20°C° 0 mm 1 mps 682 mmHg 65%
    15:00 +19°C° 0 mm 1 mps 682 mmHg 72%
    16:00 +18°C° 0 mm 1 mps 681 mmHg 80%
    17:00 +15°C° 0 mm 1 mps 681 mmHg 83%
    18:00 +14°C° 0 mm 1 mps 681 mmHg 85%
    19:00 +12°C° 0 mm 1 mps 681 mmHg 88%
    20:00 +12°C° 0 mm 1 mps 681 mmHg 87%
    21:00 +12°C° 0 mm 1 mps 681 mmHg 85%
    22:00 +12°C° 0 mm 1 mps 680 mmHg 84%
    23:00 +12°C° 0 mm 2 mps 680 mmHg 80%

    Day after tomorrow, 23 October, Wednesday

    Time Temperature Precipitation Wind Pressure Humidity
    00:00 +10°C° 0 mm 2 mps 680 mmHg 77%
    01:00 +10°C° 0 mm 2 mps 680 mmHg 74%
    02:00 +10°C° 0 mm 2 mps 679 mmHg 70%
    03:00 +10°C° 0 mm 2 mps 679 mmHg 67%
    04:00 +10°C° 0 mm 2 mps 679 mmHg 63%
    05:00 +10°C° 0 mm 2 mps 679 mmHg 61%
    06:00 +10°C° 0 mm 2 mps 678 mmHg 58%
    07:00 +10°C° 0 mm 3 mps 678 mmHg 56%
    08:00 +13°C° 0 mm 2 mps 678 mmHg 52%
    09:00 +16°C° 0 mm 2 mps 679 mmHg 48%
    10:00 +19°C° 0 mm 2 mps 679 mmHg 44%
    11:00 +20°C° 0 mm 2 mps 679 mmHg 42%
    12:00 +21°C° 0 mm 2 mps 679 mmHg 40%
    13:00 +23°C° 0 mm 2 mps 679 mmHg 38%
    14:00 +21°C° 0 mm 2 mps 678 mmHg 45%
    15:00 +20°C° 0 mm 2 mps 678 mmHg 52%
    16:00 +18°C° 0 mm 2 mps 677 mmHg 59%
    17:00 +16°C° 0 mm 2 mps 677 mmHg 61%
    18:00 +14°C° 0 mm 3 mps 676 mmHg 62%
    19:00 +12°C° 0 mm 3 mps 676 mmHg 64%
    20:00 +12°C° 0 mm 3 mps 676 mmHg 62%
    21:00 +11°C° 0 mm 3 mps 676 mmHg 60%
    22:00 +11°C° 0 mm 3 mps 676 mmHg 58%
    23:00 +11°C° 0 mm 3 mps 676 mmHg 57%

    24 October, Thursday

    Time Temperature Precipitation Wind Pressure Humidity
    00:00 +11°C° 0 mm 3 mps 675 mmHg 55%
    01:00 +10°C° 0 mm 3 mps 675 mmHg 53%
    02:00 +10°C° 0 mm 3 mps 675 mmHg 52%
    03:00 +10°C° 0 mm 3 mps 675 mmHg 51%
    04:00 +10°C° 0 mm 3 mps 675 mmHg 50%
    05:00 +10°C° 0 mm 3 mps 675 mmHg 49%
    06:00 +10°C° 0 mm 3 mps 675 mmHg 49%
    07:00 +11°C° 0 mm 3 mps 675 mmHg 49%
    08:00 +14°C° 0 mm 2 mps 675 mmHg 48%
    09:00 +16°C° 0 mm 1 mps 676 mmHg 46%
    10:00 +20°C° 0 mm 1 mps 676 mmHg 45%
    11:00 +20°C° 0 mm 1 mps 676 mmHg 44%
    12:00 +21°C° 0 mm 1 mps 676 mmHg 44%
    13:00 +21°C° 0 mm 1 mps 676 mmHg 43%
    14:00 +20°C° 0 mm 1 mps 676 mmHg 51%
    15:00 +19°C° 0 mm 1 mps 676 mmHg 59%
    16:00 +16°C° 0 mm 1 mps 675 mmHg 67%
    17:00 +15°C° 0 mm 1 mps 675 mmHg 71%
    18:00 +13°C° 0 mm 1 mps 675 mmHg 75%
    19:00 +12°C° 0 mm 1 mps 675 mmHg 80%
    20:00 +11°C° 0 mm 1 mps 675 mmHg 81%
    21:00 +11°C° 0 mm 1 mps 676 mmHg 82%
    22:00 +11°C° 0 mm 1 mps 676 mmHg 83%
    23:00 +10°C° 0 mm 1 mps 676 mmHg 85%

    25 October, Friday

    Time Temperature Precipitation Wind Pressure Humidity
    00:00 +10°C° 0 mm 1 mps 676 mmHg 86%
    01:00 +9°C° 0 mm 0 mps 677 mmHg 88%
    02:00 +9°C° 0 mm 0 mps 677 mmHg 88%
    03:00 +9°C° 0 mm 0 mps 677 mmHg 89%
    04:00 +8°C° 0 mm 0 mps 677 mmHg 89%
    05:00 +8°C° 0 mm 0 mps 677 mmHg 90%
    06:00 +8°C° 0 mm 0 mps 677 mmHg 91%
    07:00 +8°C° 0 mm 0 mps 677 mmHg 92%
    08:00 +10°C° 0 mm 0 mps 678 mmHg 85%
    09:00 +12°C° 0 mm 0 mps 679 mmHg 79%
    10:00 +15°C° 0 mm 1 mps 680 mmHg 72%
    11:00 +15°C° 0 mm 1 mps 680 mmHg 72%
    12:00 +16°C° 0 mm 1 mps 680 mmHg 71%
    13:00 +16°C° 0 mm 1 mps 680 mmHg 70%
    14:00 +16°C° 0 mm 1 mps 679 mmHg 74%
    15:00 +15°C° 0 mm 1 mps 679 mmHg 77%
    16:00 +15°C° 0 mm 1 mps 679 mmHg 81%
    17:00 +12°C° 0 mm 0 mps 679 mmHg 86%
    18:00 +11°C° 0 mm 0 mps 679 mmHg 90%
    19:00 +9°C° 0 mm 0 mps 679 mmHg 94%
    20:00 +10°C° 0 mm 1 mps 679 mmHg 94%
    21:00 +10°C° 0 mm 1 mps 679 mmHg 93%
    22:00 +10°C° 0 mm 1 mps 679 mmHg 92%
    23:00 +10°C° 0 mm 1 mps 679 mmHg 91%

    26 October, Saturday

    Time Temperature Precipitation Wind Pressure Humidity
    00:00 +10°C° 0 mm 1 mps 679 mmHg 91%
    01:00 +10°C° 0 mm 1 mps 679 mmHg 91%
    02:00 +10°C° 0 mm 1 mps 678 mmHg 90%
    03:00 +10°C° 0 mm 1 mps 678 mmHg 88%
    04:00 +10°C° 0 mm 1 mps 678 mmHg 87%
    05:00 +10°C° 0 mm 1 mps 679 mmHg 87%
    06:00 +10°C° 0 mm 1 mps 679 mmHg 87%
    07:00 +9°C° 0 mm 1 mps 679 mmHg 86%
    08:00 +12°C° 0 mm 1 mps 680 mmHg 79%
    09:00 +13°C° 0 mm 0 mps 680 mmHg 72%
    10:00 +16°C° 0 mm 0 mps 681 mmHg 65%
    11:00 +16°C° 0 mm 0 mps 681 mmHg 63%
    12:00 +19°C° 0 mm 1 mps 681 mmHg 61%
    13:00 +20°C° 0 mm 1 mps 681 mmHg 60%
    14:00 +19°C° 0 mm 1 mps 681 mmHg 67%
    15:00 +18°C° 0 mm 1 mps 680 mmHg 73%
    16:00 +16°C° 0 mm 1 mps 680 mmHg 80%
    17:00 +15°C° 0 mm 1 mps 680 mmHg 85%
    18:00 +13°C° 0 mm 1 mps 680 mmHg 89%
    19:00 +11°C° 0 mm 1 mps 680 mmHg 93%
    20:00 +11°C° 0 mm 1 mps 680 mmHg 92%
    21:00 +11°C° 0 mm 1 mps 680 mmHg 91%
    22:00 +11°C° 0 mm 1 mps 680 mmHg 90%
    23:00 +11°C° 0 mm 1 mps 680 mmHg 89%
    Show more